STARLINK-32238, 61661

Orbit data source: Space-Track

STARLINK-32238, 61661 is a payload satellite owned by SpaceX/Seattle (US) in LEO that was launched on Sat, 26 Oct 2024 UTC via an FALCON 9 launch vehicle from the Air Force Eastern Test Range (AFETR). Payload-class satellites include a variety of spacecraft equipped with specific instruments for various scientific and technological missions. These include communications satellites like Starlink; space stations such as the ISS; scientific satellites like the Hubble; Earth observation satellites from companies like Planet Labs, Umbra, and HawkEye 360; GPS; miniature CubeSats for education and research; and military/defense satellites.

Loading next visibility...
Identifier
61661, 2024-193A
Orbit
LEO
Country
Flag of USUS
Related business
Manufacturer
SpaceX/Seattle
Mission
Operational Commercial Communications
Bus & Motor
STARLINK V2M, Unknown motor
Mass
730 kg wet, ~700 kg dry
Launch date (UTC)
2024-10-26 (10 months ago)
Launch vehicle
FALCON 9
Launch site
Air Force Eastern Test Range (AFETR)
Object type
Payload
Rocket body
Debris
Shape & HBR
Box + 2 Pan, 14.5 m
Radar Cross Section
36.964 m², Large (>1 m²)

Expand to show TLE details & history
Last TLE update: 14 hours ago

TLE from 14 hours ago
0 STARLINK-32238
1 61661U 24193A   25243.36042075 -.00004420  00000-0 -13715-3 0  9994
2 61661  53.1599 255.2647 0001213  88.6800 271.4339 15.30209640 47383
Epoch: 2025-08-31T08:39Z
TLE epoch observation values (Epoch: 2025-08-31T08:39:00.352Z)
Latitude
-0.0001°
Longitude
145.73168°
Altitude
476.065 km
Speed
7.629 km/s
True Right ascension
17h 01m 03s
True Declination
0° 00' 00"
Sunlit
Object was in daylight at epoch
Visualization orbit readout
Latitude
Unknown
Longitude
Unknown
Altitude
Unknown
Speed
Unknown
Apparent Right ascension
Unknown
Apparent Declination
Unknown
Sunlit
N/A
Visualization observer readout
Local Sidereal Time
14:10:54
Azimuth
Unknown
Elevation
Unknown
Doppler factor
Unknown
Orbital elements
Apogee altitude
476.274 km
Perigee altitude
474.611 km
Semi-major axis
6,853.58 km
Eccentricity
0.00012
Inclination
53.1599°
RAAN
255.2647°
Arg. of periapsis
88.68°
True anomaly
271.42°
Mean anomaly
271.4339°
Eccentric anomaly
271.42695°
Mean motion
3.82531 °/min
Orbital period
94.11 mins
BSTAR
-0.00013715
Loading maneuver chart data...
Computing Atmospheric mass density...
Loading historical data...
Loading historical data...
Loading historical data...
Loading historical data...
Loading historical data...
Loading historical data...
Loading historical data...

Documentation

Showing up to 5 results
|